Date String (YYYY-MM-DD hh:mm:ss) UTC,Instrument flags,Ambient pressure (hPa),Sample flow (lpm),Bypass flow (lpm),Sample temperature (°C),Ambient temperature (°C),ASC tube jacket temperature (°C),LED temperature (°C),Box temperature (°C),Sample RH (%),Span deviation,Mass concentration (μg/m³),Mass concentration (μg/m³),Mass concentration (μg/m³)
DateTimeUTC,F1_M11,P_M11,Q1_M11,Q2_M11,T1_M11,T2_M11,T3_M11,T4_M11,T5_M11,U1_M11,ZSPAN_M11,X0_M11,X2_M11,X1_M11
2022-10-11 10:00:00,,0821.0,5.00,0.00,29.4,27.7,00.0,38.2,31.1,10.3,0000.0,0010.26,0005.01,0004.51
2022-10-11 10:01:00,,0821.0,5.00,0.00,29.4,27.7,00.0,38.2,31.1,10.4,0000.0,0010.60,0005.01,0004.51
2022-10-11 10:02:00,,0821.0,5.01,0.00,29.3,27.7,00.0,38.2,31.1,10.3,0000.0,0011.17,0005.03,0004.51
2022-10-11 10:03:00,,0821.0,4.99,0.00,29.3,27.7,00.0,38.2,31.1,10.3,0000.0,0011.09,0005.05,0004.52
2022-10-11 10:04:00,,0821.0,4.99,0.00,29.3,27.7,00.0,38.2,31.1,10.3,0000.0,0010.63,0005.06,0004.52
2022-10-11 10:05:00,,0821.0,5.00,0.00,29.3,27.7,00.0,38.2,31.1,10.2,0000.0,0010.84,0005.09,0004.53
2022-10-11 10:06:00,,0821.0,5.01,0.00,29.3,27.7,00.0,38.2,31.1,10.2,0000.0,0010.76,0005.09,0004.54
2022-10-11 10:07:00,,0820.9,5.00,0.00,29.3,27.6,00.0,38.2,31.1,10.2,0000.0,0010.82,0005.12,0004.54
2022-10-11 10:08:00,,0821.0,4.99,0.00,29.3,27.6,00.0,38.2,31.1,10.3,0000.0,0010.12,0005.12,0004.54
2022-10-11 10:09:00,,0821.0,5.01,0.00,29.3,27.6,00.0,38.2,31.1,10.4,0000.0,0010.03,0005.12,0004.55
2022-10-11 10:10:00,,0821.0,5.01,0.00,29.3,27.6,00.0,38.2,31.1,10.4,0000.0,0010.10,0005.15,0004.55
2022-10-11 10:11:00,,0821.0,5.00,0.00,29.3,27.6,00.0,38.2,31.1,10.4,0000.0,0010.05,0005.18,0004.56
2022-10-11 10:12:00,,0821.0,5.00,0.00,29.3,27.6,00.0,38.2,31.0,10.3,0000.0,0009.90,0005.19,0004.56
2022-10-11 10:13:00,,0821.0,5.00,0.00,29.3,27.6,00.0,38.2,31.0,10.4,0000.0,0010.26,0005.20,0004.57
2022-10-11 10:14:00,,0820.9,5.00,0.00,29.3,27.6,00.0,38.1,31.0,10.4,0000.0,0010.77,0005.21,0004.57
2022-10-11 10:15:00,,0820.9,5.01,0.00,29.3,27.6,00.0,38.1,31.0,10.4,0000.0,0010.72,0005.22,0004.57
2022-10-11 10:16:00,,0820.9,5.01,0.00,29.3,27.6,00.0,38.1,31.0,10.4,0000.0,0010.54,0005.22,0004.58
2022-10-11 10:17:00,,0820.9,4.99,0.00,29.3,27.6,00.0,38.1,31.0,10.5,0000.0,0010.95,0005.23,0004.57
2022-10-11 10:18:00,,0820.9,5.01,0.00,29.3,27.6,00.0,38.1,31.1,10.5,0000.0,0011.66,0005.24,0004.57
2022-10-11 10:19:00,,0820.9,5.00,0.00,29.3,27.6,00.0,38.1,31.1,10.5,0000.0,0011.50,0005.22,0004.56
2022-10-11 10:20:00,,0820.9,5.00,0.00,29.3,27.6,00.0,38.1,31.1,10.4,0000.0,0011.59,0005.23,0004.58
2022-10-11 10:21:00,,0820.9,4.99,0.00,29.3,27.6,00.0,38.1,31.0,10.5,0000.0,0011.41,0005.20,0004.59
2022-10-11 10:22:00,,0820.9,5.00,0.00,29.3,27.7,00.0,38.1,31.0,10.5,0000.0,0011.31,0005.16,0004.60
2022-10-11 10:23:00,,0820.9,5.01,0.00,29.3,27.6,00.0,38.1,31.0,10.5,0000.0,0011.36,0005.16,0004.61
2022-10-11 10:24:00,,0820.9,5.00,0.00,29.2,27.6,00.0,38.1,31.0,10.5,0000.0,0010.49,0005.14,0004.61
2022-10-11 10:25:00,,0820.8,4.99,0.00,29.2,27.6,00.0,38.1,31.0,10.4,0000.0,0009.61,0005.10,0004.61
2022-10-11 10:26:00,,0820.9,5.00,0.00,29.2,27.6,00.0,38.1,31.0,10.4,0000.0,0009.65,0005.07,0004.60
2022-10-11 10:27:00,,0820.9,5.00,0.00,29.2,27.6,00.0,38.1,31.0,10.5,0000.0,0009.94,0005.06,0004.60
2022-10-11 10:28:00,,0820.9,5.00,0.00,29.2,27.6,00.0,38.1,31.0,10.4,0000.0,0009.79,0005.06,0004.61
2022-10-11 10:29:00,,0820.9,5.01,0.00,29.2,27.6,00.0,38.1,31.0,10.4,0000.0,0009.37,0005.04,0004.62
2022-10-11 10:30:00,,0820.9,5.00,0.00,29.2,27.6,00.0,38.1,31.0,10.4,0000.0,0010.15,0005.04,0004.63
2022-10-11 10:31:00,,0820.9,4.99,0.00,29.2,27.6,00.0,38.1,31.0,10.5,0000.0,0010.05,0005.03,0004.62
2022-10-11 10:32:00,,0820.9,5.01,0.00,29.2,27.6,00.0,38.1,31.0,10.4,0000.0,0010.12,0005.05,0004.61
2022-10-11 10:33:00,,0820.8,5.01,0.00,29.2,27.6,00.0,38.0,31.0,10.4,0000.0,0010.22,0005.07,0004.62
2022-10-11 10:34:00,,0820.8,4.99,0.00,29.2,27.6,00.0,38.0,31.0,10.4,0000.0,0010.35,0005.06,0004.62
2022-10-11 10:35:00,,0820.8,5.00,0.00,29.2,27.6,00.0,38.0,31.0,10.4,0000.0,0010.35,0005.10,0004.65
2022-10-11 10:36:00,,0820.8,5.00,0.00,29.2,27.6,00.0,38.0,31.0,10.4,0000.0,0010.52,0005.15,0004.67
2022-10-11 10:37:00,,0820.9,5.00,0.00,29.2,27.6,00.0,38.0,31.0,10.4,0000.0,0010.63,0005.20,0004.69
2022-10-11 10:38:00,,0820.9,5.00,0.00,29.2,27.6,00.0,38.0,31.0,10.4,0000.0,0010.41,0005.20,0004.70
2022-10-11 10:39:00,,0820.9,4.99,0.00,29.2,27.6,00.0,38.0,31.0,10.4,0000.0,0010.30,0005.23,0004.72
2022-10-11 10:40:00,,0820.9,5.01,0.00,29.2,27.6,00.0,38.0,31.0,10.4,0000.0,0010.03,0005.23,0004.73
2022-10-11 10:41:00,,0820.9,5.00,0.00,29.2,27.5,00.0,38.0,31.0,10.5,0000.0,0009.64,0005.25,0004.73
2022-10-11 10:42:00,,0820.8,4.99,0.00,29.2,27.6,00.0,38.0,30.9,10.5,0000.3,0009.39,0005.26,0004.74
2022-10-11 10:43:00,,0820.9,4.99,0.00,29.2,27.5,00.0,38.0,31.0,10.5,0000.0,0009.43,0005.27,0004.75
2022-10-11 10:44:00,,0820.8,5.00,0.00,29.2,27.5,00.0,38.0,30.9,10.5,0000.0,0009.41,0005.26,0004.75
2022-10-11 10:45:00,,0820.8,5.01,0.00,29.2,27.5,00.0,38.0,30.9,10.5,0000.0,0009.43,0005.27,0004.76
2022-10-11 10:46:00,,0820.8,4.99,0.00,29.2,27.5,00.0,38.0,30.9,10.5,0000.0,0009.77,0005.24,0004.75
2022-10-11 10:47:00,,0820.9,5.00,0.00,29.1,27.5,00.0,38.0,30.9,10.6,0000.0,0009.77,0005.22,0004.75
2022-10-11 10:48:00,,0820.9,5.01,0.00,29.1,27.5,00.0,38.0,30.9,10.7,0000.0,0009.71,0005.22,0004.74
2022-10-11 10:49:00,,0820.9,4.99,0.00,29.1,27.5,00.0,38.0,30.9,10.6,0000.0,0009.61,0005.22,0004.74
2022-10-11 10:50:00,,0820.9,4.99,0.00,29.1,27.5,00.0,38.0,30.9,10.6,0000.0,0009.49,0005.19,0004.73
2022-10-11 10:51:00,,0820.8,5.02,0.00,29.1,27.5,00.0,38.0,31.0,10.7,0000.0,0009.53,0005.21,0004.73
2022-10-11 10:52:00,,0820.8,4.99,0.00,29.1,27.5,00.0,38.0,30.9,10.7,0000.0,0009.47,0005.21,0004.73
2022-10-11 10:53:00,,0820.9,4.99,0.00,29.1,27.5,00.0,38.0,30.9,10.7,0000.0,0009.43,0005.22,0004.73
2022-10-11 10:54:00,,0820.8,5.00,0.00,29.1,27.5,00.0,38.0,30.9,10.7,0000.0,0009.62,0005.22,0004.74
2022-10-11 10:55:00,,0820.8,5.01,0.00,29.1,27.5,00.0,38.0,30.9,10.7,0000.0,0009.80,0005.22,0004.73
2022-10-11 10:56:00,,0820.7,4.99,0.00,29.1,27.5,00.0,38.0,30.9,10.7,0000.0,0009.47,0005.23,0004.71
2022-10-11 10:57:00,,0820.8,5.00,0.00,29.1,27.5,00.0,37.9,30.9,10.5,0000.0,0009.13,0005.22,0004.70
2022-10-11 10:58:00,,0820.9,5.00,0.00,29.1,27.5,00.0,37.9,30.9,10.5,0000.0,0009.14,0005.27,0004.70
2022-10-11 10:59:00,,0820.9,5.01,0.00,29.1,27.5,00.0,37.9,30.9,10.6,0000.0,0009.03,0005.26,0004.70
